User: anonymous   Login
Location: Caltech
(34.1382°N, 118.1253°W)
Time: 12:19:21
(UTC-07:00)
Language:

SO-50 - Orbit

View from above orbital plane
View from above orbital plane
View from above satellite
View from above satellite

Ground track
Ground track

The orbit data is extracted from the following two-line orbital elements,

1 27607U 02058C   14304.26248330  .00001408  00000-0  22738-3 0  5621
2 27607 064.5565 177.4620 0063680 335.4274 024.3795 14.74075084637537
Epoch (UTC): 31 October 2014 06:17:58
Eccentricity: 0.0063680
inclination: 64.5565°
perigee height: 603 km
apogee height: 693 km
right ascension of ascending node: 177.4620°
argument of perigee: 335.4274°
revolutions per day: 14.74075084
mean anomaly at epoch: 24.3795°
orbit number at epoch: 63753

The dashed part of the orbit path shows where the satellite is in the earth's shadow,  

DLR